TimeAKST,TemperatureF,Dew PointF,Humidity,Sea Level PressureIn,VisibilityMPH,Wind Direction,Wind SpeedMPH,Gust SpeedMPH,PrecipitationIn,Events,Conditions,WindDirDegrees,DateUTC
12:16 AM,26.6,19.4,74,29.74,10.0,SE,5.8,-,N/A,,Partly Cloudy,130,2013-03-02 09:16:00
12:36 AM,28.4,24.8,86,29.74,10.0,SE,5.8,-,N/A,,Mostly Cloudy,130,2013-03-02 09:36:00
12:56 AM,28.4,19.4,69,29.73,10.0,SE,19.6,25.3,N/A,,Mostly Cloudy,140,2013-03-02 09:56:00
1:16 AM,28.4,19.4,69,29.72,10.0,SE,18.4,24.2,N/A,,Scattered Clouds,130,2013-03-02 10:16:00
1:36 AM,28.4,21.2,74,29.73,10.0,ESE,16.1,23.0,N/A,,Mostly Cloudy,120,2013-03-02 10:36:00
1:56 AM,28.4,17.6,64,29.72,10.0,ESE,15.0,23.0,N/A,,Mostly Cloudy,110,2013-03-02 10:56:00
2:16 AM,28.4,19.4,69,29.71,10.0,East,15.0,23.0,N/A,,Mostly Cloudy,100,2013-03-02 11:16:00
3:36 AM,28.4,21.2,74,29.67,10.0,ESE,19.6,25.3,N/A,,Overcast,120,2013-03-02 12:36:00
3:56 AM,30.2,21.2,69,29.65,8.0,SE,32.2,39.1,N/A,,Mostly Cloudy,140,2013-03-02 12:56:00
4:16 AM,30.2,19.4,64,29.65,10.0,SE,23.0,28.8,N/A,,Scattered Clouds,130,2013-03-02 13:16:00
4:36 AM,30.2,19.4,64,29.65,10.0,East,26.5,35.7,N/A,,Mostly Cloudy,90,2013-03-02 13:36:00
4:56 AM,30.2,19.4,64,29.65,10.0,ESE,20.7,32.2,N/A,,Overcast,110,2013-03-02 13:56:00
5:16 AM,30.2,23.0,75,29.61,9.0,SE,25.3,29.9,N/A,,Overcast,130,2013-03-02 14:16:00
5:36 AM,33.8,21.2,60,29.59,7.0,SE,32.2,38.0,N/A,,Mostly Cloudy,140,2013-03-02 14:36:00
5:56 AM,33.8,21.2,60,29.59,4.0,SE,29.9,40.3,N/A,,Mostly Cloudy,140,2013-03-02 14:56:00
6:16 AM,32.0,23.0,69,29.61,10.0,SE,20.7,29.9,N/A,,Overcast,130,2013-03-02 15:16:00
6:36 AM,33.8,23.0,65,29.60,10.0,SE,27.6,32.2,N/A,,Overcast,140,2013-03-02 15:36:00
6:56 AM,33.8,23.0,65,29.60,10.0,SE,21.9,29.9,N/A,,Overcast,140,2013-03-02 15:56:00
7:16 AM,32.0,23.0,69,29.60,10.0,ESE,16.1,27.6,N/A,,Overcast,120,2013-03-02 16:16:00
7:36 AM,33.8,21.2,60,29.59,10.0,East,16.1,21.9,N/A,,Overcast,80,2013-03-02 16:36:00
7:56 AM,32.0,21.2,64,29.58,10.0,East,15.0,-,N/A,,Overcast,80,2013-03-02 16:56:00
8:16 AM,33.8,24.8,70,29.56,10.0,ESE,21.9,31.1,N/A,,Mostly Cloudy,110,2013-03-02 17:16:00
8:36 AM,33.8,23.0,65,29.54,10.0,ESE,27.6,-,N/A,,Partly Cloudy,110,2013-03-02 17:36:00
8:56 AM,33.8,24.8,70,29.51,6.0,ESE,32.2,36.8,N/A,,Partly Cloudy,120,2013-03-02 17:56:00
9:16 AM,33.8,24.8,70,29.50,2.5,SE,35.7,41.4,N/A,,Partly Cloudy,130,2013-03-02 18:16:00
9:36 AM,33.8,26.6,75,29.50,2.5,SE,35.7,42.6,N/A,,Mostly Cloudy,130,2013-03-02 18:36:00
9:56 AM,33.8,24.8,70,29.52,5.0,ESE,32.2,-,N/A,,Overcast,120,2013-03-02 18:56:00
10:16 AM,35.6,26.6,70,29.53,10.0,ESE,28.8,-,N/A,,Overcast,120,2013-03-02 19:16:00
10:36 AM,35.6,24.8,65,29.54,10.0,ESE,25.3,31.1,N/A,,Overcast,120,2013-03-02 19:36:00
10:56 AM,35.6,24.8,65,29.54,10.0,East,18.4,-,N/A,,Overcast,100,2013-03-02 19:56:00
11:16 AM,33.8,26.6,75,29.54,10.0,ENE,15.0,-,N/A,,Overcast,70,2013-03-02 20:16:00
11:36 AM,35.6,26.6,70,29.53,10.0,East,17.3,21.9,N/A,,Overcast,90,2013-03-02 20:36:00
11:56 AM,35.6,26.6,70,29.51,10.0,East,24.2,-,N/A,,Overcast,100,2013-03-02 20:56:00
12:16 PM,35.6,26.6,70,29.49,6.0,East,27.6,32.2,N/A,,Overcast,90,2013-03-02 21:16:00
12:36 PM,35.6,24.8,65,29.48,5.0,ENE,31.1,38.0,N/A,,Overcast,70,2013-03-02 21:36:00
12:56 PM,35.6,26.6,70,29.48,4.0,ENE,25.3,40.3,N/A,,Overcast,70,2013-03-02 21:56:00
1:16 PM,35.6,26.6,70,29.47,3.0,ENE,26.5,40.3,N/A,,Overcast,70,2013-03-02 22:16:00
1:36 PM,35.6,28.4,75,29.47,4.0,ENE,26.5,38.0,N/A,,Overcast,70,2013-03-02 22:36:00
1:56 PM,35.6,26.6,70,29.47,8.0,ENE,20.7,28.8,N/A,,Overcast,70,2013-03-02 22:56:00
2:16 PM,35.6,28.4,75,29.46,9.0,ENE,21.9,27.6,N/A,,Overcast,70,2013-03-02 23:16:00
2:36 PM,35.6,28.4,75,29.45,9.0,ENE,28.8,38.0,N/A,,Overcast,70,2013-03-02 23:36:00
2:56 PM,35.6,26.6,70,29.45,10.0,ENE,23.0,29.9,N/A,,Overcast,70,2013-03-02 23:56:00
3:16 PM,35.6,28.4,75,29.44,10.0,ENE,24.2,34.5,N/A,,Overcast,60,2013-03-03 00:16:00
3:36 PM,35.6,26.6,70,29.43,10.0,ENE,24.2,34.5,N/A,,Overcast,60,2013-03-03 00:36:00
3:56 PM,33.8,26.6,75,29.43,10.0,ENE,24.2,32.2,N/A,,Overcast,60,2013-03-03 00:56:00
4:16 PM,35.6,28.4,75,29.42,10.0,ENE,28.8,32.2,N/A,,Overcast,70,2013-03-03 01:16:00
4:36 PM,35.6,28.4,75,29.41,10.0,NE,27.6,38.0,N/A,,Overcast,50,2013-03-03 01:36:00
4:56 PM,35.6,26.6,70,29.41,10.0,ENE,26.5,39.1,N/A,,Overcast,60,2013-03-03 01:56:00
5:16 PM,35.6,28.4,75,29.42,10.0,ENE,24.2,31.1,N/A,,Overcast,60,2013-03-03 02:16:00
5:36 PM,35.6,26.6,70,29.42,10.0,ENE,23.0,32.2,N/A,,Overcast,60,2013-03-03 02:36:00
5:56 PM,35.6,26.6,70,29.43,10.0,ENE,21.9,36.8,N/A,,Overcast,60,2013-03-03 02:56:00
6:16 PM,35.6,26.6,70,29.43,10.0,NE,26.5,31.1,N/A,,Overcast,50,2013-03-03 03:16:00
6:36 PM,35.6,26.6,70,29.43,10.0,ENE,26.5,40.3,N/A,,Overcast,60,2013-03-03 03:36:00
6:56 PM,35.6,26.6,70,29.43,10.0,ENE,26.5,33.4,N/A,,Overcast,60,2013-03-03 03:56:00
7:16 PM,35.6,28.4,75,29.44,10.0,ENE,26.5,34.5,N/A,,Overcast,70,2013-03-03 04:16:00
7:36 PM,35.6,28.4,75,29.44,10.0,ENE,26.5,35.7,N/A,,Overcast,70,2013-03-03 04:36:00
7:56 PM,35.6,28.4,75,29.44,10.0,ENE,27.6,36.8,N/A,,Overcast,60,2013-03-03 04:56:00
8:16 PM,35.6,28.4,75,29.45,10.0,ENE,25.3,31.1,N/A,,Mostly Cloudy,70,2013-03-03 05:16:00
8:36 PM,35.6,26.6,70,29.45,10.0,ENE,25.3,32.2,N/A,,Overcast,70,2013-03-03 05:36:00
8:56 PM,35.6,26.6,70,29.45,10.0,East,24.2,35.7,N/A,,Overcast,80,2013-03-03 05:56:00
9:16 PM,35.6,26.6,70,29.45,10.0,ENE,25.3,36.8,N/A,,Mostly Cloudy,70,2013-03-03 06:16:00
9:36 PM,35.6,28.4,75,29.46,10.0,ENE,21.9,31.1,N/A,,Overcast,70,2013-03-03 06:36:00
9:56 PM,35.6,28.4,75,29.47,10.0,East,16.1,-,N/A,,Mostly Cloudy,80,2013-03-03 06:56:00
10:16 PM,35.6,28.4,75,29.47,10.0,East,20.7,-,N/A,,Mostly Cloudy,80,2013-03-03 07:16:00
10:36 PM,35.6,28.4,75,29.48,10.0,ENE,20.7,-,N/A,,Overcast,70,2013-03-03 07:36:00
10:56 PM,35.6,28.4,75,29.48,10.0,ENE,21.9,-,N/A,,Overcast,70,2013-03-03 07:56:00
11:16 PM,35.6,26.6,70,29.47,10.0,ENE,24.2,28.8,N/A,,Overcast,70,2013-03-03 08:16:00
11:36 PM,35.6,26.6,70,29.48,10.0,East,24.2,29.9,N/A,,Overcast,80,2013-03-03 08:36:00
11:56 PM,35.6,26.6,70,29.49,10.0,East,20.7,34.5,N/A,,Overcast,80,2013-03-03 08:56:00